Temp
-12 -12 -12 -13 -12 -12 -12 -12 -11 -12 -12 -11 -11 -12 -13 -12 -12 -12 -12 -12 -13 -13 -13 -14 -15 -14 -14 -14 -14 -14 -14 -14 -14 -14 -14 -14 -14 -14 -14 -14 -14 -14 -14
-12 -13 -13 -13 -12 -12 -12 -12 -12 -12 -12 -12 -12 -12 -13 -12 -12 -12 -13 -13 -13 -13 -13 -15 -15 -15 -14 -14 -15 -15 -15 -15 -14 -14 -14 -14 -14 -14 -14 -14 -14 -14 -14
-12 -12 -13 -12 -12 -12 -12 -12 -12 -12 -11 -12 -12 -12 -13 -12 -12 -12 -13 -13 -13 -14 -14 -15 -15 -15 -15 -15 -15 -15 -15 -15 -15 -15 -14 -14 -14 -14 -14 -14 -14 -14 -14
-12 -12 -12 -12 -12 -12 -12 -12 -12 -13 -13 -12 -12 -12 -13 -13 -12 -12 -13 -13 -14 -14 -15 -15 -16 -16 -15 -15 -15 -15 -15 -15 -15 -15 -15 -15 -14 -14 -14 -14 -14 -14 -14
-12 -12 -12 -12 -12 -12 -12 -12 -12 -12 -13 -13 -13 -13 -13 -13 -13 -13 -13 -14 -14 -15 -15 -16 -16 -16 -16 -16 -16 -16 -16 -16 -16 -15 -15 -15 -15 -15 -15 -15 -15 -15 -15
-12 -12 -12 -12 -12 -11 -12 -12 -12 -12 -13 -13 -13 -13 -13 -13 -13 -13 -13 -14 -15 -15 -15 -16 -17 -17 -16 -16 -16 -16 -16 -16 -16 -15 -15 -15 -15 -15 -15 -15 -15 -15 -15
-12 -12 -13 -12 -12 -13 -13 -12 -12 -12 -12 -13 -13 -13 -13 -13 -13 -14 -14 -15 -15 -15 -15 -16 -17 -17 -16 -17 -17 -17 -16 -16 -16 -16 -15 -15 -15 -15 -16 -16 -15 -15 -15
-12 -13 -13 -13 -13 -13 -13 -12 -12 -12 -12 -12 -13 -13 -13 -13 -14 -14 -14 -15 -16 -16 -16 -16 -17 -17 -17 -17 -17 -17 -16 -16 -16 -16 -15 -15 -15 -15 -15 -15 -15 -16 -16
-12 -12 -12 -13 -13 -13 -13 -13 -13 -12 -12 -12 -13 -13 -13 -14 -14 -14 -15 -15 -15 -16 -17 -17 -18 -18 -17 -17 -17 -17 -16 -16 -16 -16 -16 -16 -15 -15 -15 -15 -15 -16 -16
-12 -13 -13 -13 -14 -13 -13 -13 -13 -13 -13 -13 -13 -14 -14 -14 -14 -15 -15 -15 -15 -15 -16 -16 -17 -17 -17 -17 -17 -16 -16 -17 -17 -16 -16 -16 -16 -16 -16 -16 -16 -16 -16
-12 -13 -13 -13 -13 -13 -13 -13 -13 -14 -14 -14 -14 -14 -14 -15 -15 -15 -15 -15 -16 -16 -15 -16 -16 -17 -17 -16 -16 -16 -16 -16 -16 -16 -16 -16 -15 -16 -16 -16 -16 -17 -17
-13 -13 -13 -13 -13 -13 -13 -13 -14 -14 -14 -14 -15 -14 -15 -15 -15 -15 -15 -16 -16 -16 -16 -16 -16 -16 -16 -16 -16 -16 -16 -16 -16 -16 -16 -16 -16 -16 -16 -16 -16 -17 -16
-14 -14 -13 -13 -13 -14 -14 -14 -14 -14 -15 -15 -15 -15 -15 -15 -15 -15 -15 -16 -15 -16 -16 -17 -17 -17 -16 -16 -16 -16 -15 -15 -15 -15 -15 -15 -15 -15 -16 -16 -17 -16 -16
-13 -13 -13 -13 -14 -14 -13 -13 -13 -14 -14 -14 -14 -14 -15 -16 -16 -16 -16 -16 -16 -16 -16 -16 -16 -16 -17 -16 -16 -15 -15 -15 -15 -15 -15 -15 -15 -16 -16 -16 -16 -16 -16
-13 -13 -13 -13 -13 -13 -13 -13 -13 -14 -14 -15 -15 -15 -15 -15 -15 -16 -16 -16 -16 -15 -16 -16 -16 -17 -16 -16 -16 -16 -16 -16 -16 -15 -16 -15 -15 -16 -17 -17 -17 -18 -18
-14 -14 -14 -14 -14 -14 -14 -14 -14 -14 -14 -15 -15 -15 -15 -15 -16 -16 -16 -16 -16 -15 -14 -16 -16 -16 -16 -17 -17 -16 -17 -16 -16 -16 -16 -16 -16 -17 -17 -17 -17 -18 -18
-14 -14 -14 -14 -14 -15 -15 -15 -15 -15 -14 -15 -15 -15 -15 -15 -16 -16 -16 -16 -16 -16 -16 -16 -16 -16 -16 -17 -17 -16 -17 -17 -17 -17 -17 -17 -17 -17 -18 -18 -19 -18 -18
-14 -14 -14 -14 -15 -15 -15 -15 -15 -15 -15 -15 -15 -15 -16 -16 -16 -16 -16 -16 -16 -17 -16 -16 -16 -16 -16 -16 -16 -16 -17 -17 -17 -17 -17 -17 -17 -17 -18 -18 -18 -19 -18
-15 -15 -15 -15 -15 -15 -15 -15 -15 -15 -15 -15 -15 -15 -16 -16 -16 -16 -16 -16 -16 -17 -17 -17 -16 -16 -16 -16 -16 -16 -17 -17 -17 -17 -17 -17 -18 -18 -17 -18 -18 -19 -19
-15 -15 -15 -15 -15 -15 -16 -16 -16 -16 -16 -16 -16 -16 -16 -16 -16 -16 -16 -16 -16 -16 -16 -16 -17 -16 -16 -16 -16 -17 -17 -17 -17 -17 -17 -18 -18 -18 -18 -18 -19 -19 -19
-15 -15 -15 -15 -16 -16 -16 -16 -16 -16 -16 -16 -16 -16 -16 -16 -16 -16 -17 -17 -16 -16 -16 -16 -16 -16 -16 -16 -17 -17 -17 -17 -17 -17 -17 -17 -17 -18 -18 -19 -18 -19 -19
-15 -15 -15 -16 -16 -16 -16 -16 -16 -16 -16 -16 -16 -16 -16 -16 -16 -17 -17 -16 -16 -16 -16 -16 -16 -16 -16 -16 -17 -17 -17 -17 -17 -17 -17 -17 -18 -18 -18 -19 -19 -19 -19
-16 -16 -16 -16 -16 -16 -16 -16 -16 -16 -16 -16 -17 -17 -17 -17 -17 -17 -17 -16 -16 -16 -16 -16 -16 -16 -16 -16 -16 -16 -16 -17 -17 -17 -17 -18 -18 -18 -18 -18 -19 -19 -19
-16 -16 -16 -16 -16 -16 -16 -16 -16 -16 -16 -16 -16 -16 -16 -17 -17 -17 -17 -17 -16 -16 -16 -16 -17 -16 -16 -16 -16 -16 -17 -17 -17 -17 -18 -18 -18 -18 -18 -19 -19 -19 -19
-15 -15 -16 -16 -15 -16 -16 -16 -17 -17 -17 -16 -16 -16 -16 -17 -17 -17 -18 -17 -17 -17 -16 -16 -17 -17 -17 -17 -17 -17 -18 -17 -17 -17 -18 -18 -18 -18 -19 -19 -19 -19 -19
-15 -15 -15 -15 -15 -16 -16 -16 -17 -17 -17 -17 -16 -16 -16 -17 -16 -16 -16 -17 -17 -16 -16 -16 -17 -17 -17 -17 -16 -17 -17 -17 -18 -18 -18 -18 -19 -19 -19 -19 -19 -20 -20
Height
5763 5767 5770 5774 5780 5783 5789 5791 5794 5797 5801 5801 5805 5814 5811 5812 5815 5816 5817 5818 5817 5818 5818 5819 5820 5823 5824 5824 5825 5825 5826 5826 5826 5826 5827 5827 5827 5827 5825 5824 5824 5823 5822
5760 5764 5768 5773 5776 5779 5783 5785 5790 5792 5797 5797 5801 5810 5808 5808 5811 5811 5813 5814 5813 5815 5815 5815 5816 5818 5819 5819 5820 5821 5822 5822 5823 5823 5823 5823 5822 5822 5821 5820 5819 5818 5816
5755 5760 5764 5769 5771 5774 5777 5780 5785 5789 5793 5794 5798 5804 5806 5805 5806 5807 5809 5809 5809 5811 5811 5811 5812 5813 5814 5814 5816 5816 5818 5817 5818 5819 5818 5818 5817 5817 5816 5814 5813 5811 5810
5751 5755 5758 5764 5765 5768 5772 5775 5780 5784 5787 5790 5793 5797 5804 5801 5801 5801 5803 5804 5805 5805 5806 5806 5806 5808 5809 5810 5811 5811 5812 5813 5813 5813 5814 5813 5812 5812 5810 5809 5807 5805 5804
5747 5750 5755 5759 5762 5763 5766 5769 5775 5779 5782 5785 5789 5792 5797 5796 5795 5797 5797 5798 5798 5799 5800 5800 5800 5802 5804 5805 5805 5806 5808 5807 5808 5808 5807 5807 5806 5805 5804 5802 5801 5799 5797
5742 5747 5752 5755 5757 5757 5760 5764 5771 5774 5777 5780 5784 5786 5787 5792 5790 5790 5790 5791 5791 5793 5793 5793 5793 5794 5797 5799 5800 5800 5801 5801 5800 5800 5800 5800 5799 5798 5797 5795 5793 5792 5790
5738 5742 5745 5750 5751 5750 5756 5760 5765 5769 5771 5774 5778 5780 5780 5782 5785 5786 5785 5782 5785 5786 5787 5787 5787 5789 5791 5792 5794 5795 5795 5795 5796 5797 5794 5793 5792 5790 5788 5787 5786 5785 5783
5733 5737 5740 5742 5744 5747 5751 5754 5760 5763 5765 5768 5772 5773 5775 5778 5776 5775 5776 5780 5780 5779 5778 5780 5781 5784 5785 5787 5788 5788 5789 5789 5790 5788 5787 5785 5783 5780 5779 5779 5778 5775 5773
5728 5731 5735 5736 5739 5743 5746 5747 5752 5755 5758 5762 5765 5767 5768 5770 5768 5769 5768 5769 5770 5771 5773 5775 5774 5776 5779 5780 5781 5782 5782 5782 5780 5779 5779 5776 5773 5771 5770 5769 5767 5764 5761
5722 5725 5728 5734 5735 5735 5739 5742 5744 5746 5754 5757 5759 5761 5760 5761 5761 5762 5763 5763 5762 5762 5763 5766 5769 5772 5773 5775 5773 5774 5774 5774 5772 5770 5768 5768 5767 5764 5761 5758 5754 5752 5750
5718 5722 5725 5729 5731 5733 5734 5736 5738 5744 5748 5751 5752 5753 5754 5754 5755 5756 5756 5757 5759 5758 5758 5760 5762 5764 5765 5766 5768 5768 5767 5765 5764 5762 5760 5756 5755 5755 5752 5749 5746 5743 5741
5715 5719 5722 5725 5728 5729 5730 5732 5735 5739 5742 5744 5744 5746 5747 5749 5751 5752 5752 5750 5752 5753 5753 5754 5755 5755 5756 5756 5756 5757 5756 5755 5754 5753 5751 5748 5744 5740 5738 5735 5733 5731 5730
5714 5717 5719 5721 5723 5725 5727 5730 5731 5734 5735 5738 5739 5740 5742 5744 5746 5746 5746 5745 5745 5745 5745 5747 5747 5745 5746 5745 5745 5743 5742 5742 5742 5740 5737 5734 5730 5726 5723 5721 5720 5720 5719
5715 5715 5717 5718 5720 5723 5725 5726 5727 5728 5731 5732 5735 5736 5737 5738 5738 5738 5740 5739 5737 5737 5736 5740 5741 5740 5739 5735 5733 5730 5729 5728 5727 5724 5721 5717 5713 5711 5710 5710 5710 5708 5707
5714 5715 5716 5718 5719 5720 5721 5721 5720 5722 5725 5726 5728 5730 5731 5731 5732 5732 5731 5730 5729 5728 5727 5729 5727 5728 5727 5725 5724 5722 5721 5719 5715 5712 5711 5707 5705 5703 5701 5700 5699 5697 5695
5710 5712 5714 5715 5717 5718 5718 5718 5718 5719 5720 5721 5723 5724 5724 5724 5724 5724 5723 5721 5721 5719 5717 5721 5718 5717 5717 5716 5714 5713 5711 5709 5706 5704 5702 5699 5696 5694 5692 5690 5688 5685 5682
5707 5709 5710 5711 5712 5712 5712 5713 5714 5714 5714 5714 5716 5717 5717 5715 5715 5715 5714 5712 5711 5710 5708 5708 5707 5706 5706 5706 5703 5701 5699 5697 5695 5693 5691 5688 5686 5684 5681 5678 5674 5670 5665
5703 5705 5706 5707 5707 5708 5709 5710 5710 5709 5709 5709 5709 5708 5709 5707 5706 5706 5705 5704 5702 5701 5699 5697 5695 5694 5694 5693 5691 5688 5687 5685 5681 5679 5677 5676 5674 5670 5667 5663 5659 5655 5651
5698 5699 5700 5701 5701 5701 5701 5701 5701 5701 5701 5701 5701 5701 5701 5699 5700 5698 5696 5694 5693 5690 5688 5685 5684 5682 5683 5681 5679 5676 5674 5671 5669 5666 5665 5662 5659 5655 5653 5649 5644 5639 5636
5691 5692 5693 5693 5693 5693 5693 5693 5693 5693 5693 5693 5692 5692 5692 5691 5690 5688 5685 5684 5681 5678 5677 5675 5673 5670 5671 5669 5665 5665 5662 5659 5657 5654 5652 5649 5645 5641 5636 5632 5628 5623 5617
5683 5683 5683 5684 5684 5685 5686 5686 5685 5684 5684 5684 5683 5683 5682 5680 5679 5676 5672 5671 5669 5666 5665 5663 5662 5659 5658 5655 5654 5652 5649 5646 5643 5641 5637 5634 5629 5626 5622 5616 5611 5606 5600
5673 5672 5675 5675 5675 5676 5676 5676 5676 5675 5674 5673 5672 5671 5670 5668 5667 5663 5660 5658 5657 5655 5652 5650 5648 5646 5645 5643 5641 5638 5636 5632 5625 5626 5621 5617 5613 5610 5604 5599 5594 5590 5584
5662 5662 5663 5663 5663 5664 5666 5665 5664 5661 5661 5660 5660 5658 5657 5656 5653 5650 5648 5645 5643 5642 5641 5638 5635 5632 5630 5629 5627 5623 5621 5617 5613 5609 5606 5601 5597 5592 5586 5581 5576 5571 5564
5650 5651 5651 5651 5650 5652 5653 5652 5652 5649 5648 5647 5644 5644 5642 5641 5640 5638 5635 5632 5630 5628 5626 5624 5621 5617 5615 5612 5610 5607 5603 5599 5592 5588 5589 5585 5578 5573 5567 5560 5553 5548 5543
5638 5638 5637 5636 5637 5639 5638 5640 5638 5635 5633 5631 5631 5630 5628 5626 5624 5623 5621 5618 5615 5612 5609 5606 5603 5601 5598 5593 5591 5589 5584 5582 5576 5572 5568 5566 5559 5554 5549 5542 5532 5527 5519
5623 5622 5623 5624 5624 5624 5624 5625 5623 5621 5620 5618 5616 5614 5613 5611 5610 5608 5605 5604 5600 5597 5592 5588 5586 5582 5578 5578 5570 5570 5567 5562 5557 5553 5549 5544 5540 5535 5531 5525 5515 5505 5496
Wind_Speed
19 23 19 20 26 37 35 32 31 29 27 27 25 16 24 20 19 17 18 18 16 14 13 15 14 15 15 15 16 16 16 15 14 16 19 19 20 20 20 21 22 23 25
26 24 23 21 27 30 35 35 37 32 29 30 24 20 20 21 19 16 19 18 15 17 15 16 17 18 17 18 18 18 16 16 19 21 20 19 19 22 23 22 22 23 25
24 25 20 22 23 30 34 39 39 32 30 31 24 21 20 20 17 14 16 17 17 20 18 19 20 20 21 22 20 19 21 20 22 22 20 22 21 23 24 24 23 25 26
29 28 22 23 24 27 36 41 43 37 33 32 27 23 20 22 18 16 16 17 19 19 20 22 21 22 25 25 22 22 22 24 23 21 22 22 22 23 23 24 26 27 27
31 31 29 31 28 29 34 46 45 31 34 33 27 25 20 20 19 17 17 19 19 24 23 25 23 25 25 25 27 28 30 26 24 24 23 23 23 24 25 26 29 31 34
22 26 30 27 28 29 29 43 42 37 38 36 28 26 22 19 19 19 21 20 24 23 26 27 27 30 28 30 31 27 33 28 27 27 26 26 26 25 27 29 32 35 37
27 28 33 31 26 26 37 41 40 42 39 38 31 28 24 24 21 21 23 25 25 25 27 28 31 31 31 29 30 30 32 31 29 31 29 30 29 28 29 32 36 38 38
30 27 27 27 25 22 27 38 42 39 45 42 37 30 27 22 24 25 25 22 25 26 29 27 29 33 31 33 32 33 32 31 32 32 34 33 33 31 33 35 37 42 42
29 28 25 21 20 24 27 35 37 29 36 42 32 27 23 23 27 27 25 24 22 21 24 27 30 34 35 35 35 33 34 34 35 35 35 37 39 38 39 41 43 43 42
22 21 20 20 20 26 29 32 35 17 27 25 24 23 26 27 26 25 19 13 14 18 20 20 20 27 32 32 33 34 35 36 38 39 40 39 39 41 41 42 44 41 41
26 24 22 17 16 15 15 20 19 21 22 24 24 25 25 21 21 21 20 17 13 15 14 14 16 20 25 27 28 32 36 37 37 39 40 42 42 41 42 44 47 49 41
15 19 17 18 20 14 13 14 19 22 18 22 22 18 15 15 16 16 16 15 14 14 17 19 21 25 27 28 31 33 35 36 38 41 42 44 49 52 51 49 50 31 38
14 15 18 20 16 14 16 19 20 19 16 17 17 17 16 18 19 18 18 20 21 22 24 23 26 29 31 34 36 38 39 40 42 46 49 50 55 54 49 49 40 38 43
3 5 6 10 13 14 14 14 15 16 18 18 20 22 21 20 21 24 24 26 28 30 32 28 29 31 35 37 38 42 46 47 49 46 46 43 46 39 31 33 37 46 48
4 7 10 13 14 18 21 22 21 22 23 21 21 23 24 25 28 30 32 32 31 33 34 34 38 37 37 38 42 46 48 49 44 42 36 38 36 30 37 38 44 49 52
6 7 8 9 12 14 15 16 16 17 18 17 22 24 25 26 29 32 32 34 35 38 39 36 39 42 41 44 46 48 47 41 41 38 44 42 40 43 44 44 47 51 53
8 9 9 11 13 15 16 14 15 18 19 20 21 23 25 26 28 30 30 32 35 37 38 38 40 41 43 47 50 49 46 45 45 44 44 44 42 44 47 49 50 52 53
11 12 11 12 15 17 18 20 21 22 22 23 24 26 25 27 28 31 32 33 35 35 38 39 38 41 43 46 47 48 46 46 46 47 47 48 47 51 56 56 55 53 56
18 16 15 16 20 22 24 25 25 27 27 27 28 29 28 31 32 34 36 37 37 40 39 40 40 40 40 41 43 48 45 46 47 47 49 52 52 57 57 57 66 61 60
22 22 22 21 21 24 23 25 28 28 29 30 30 32 33 36 37 39 42 41 43 44 42 41 44 44 41 42 41 46 49 50 48 52 53 53 57 59 63 68 64 66 65
26 26 27 27 25 27 28 26 29 30 32 35 36 38 39 40 41 41 43 42 46 47 48 46 48 47 44 46 48 44 48 51 53 55 58 56 54 59 59 65 67 70 76
33 31 30 30 32 29 28 30 32 36 38 38 38 39 40 40 39 42 44 45 45 45 47 49 50 51 50 52 53 55 57 58 51 60 63 60 58 69 73 68 66 69 75
37 37 36 36 37 35 33 33 37 41 42 41 42 43 44 43 42 43 43 44 45 47 49 50 50 51 53 53 54 56 56 57 61 62 61 66 71 76 79 76 73 73 82
42 43 44 43 44 40 38 38 39 42 44 44 47 47 46 45 44 45 46 47 49 49 49 51 53 55 56 59 60 60 62 64 68 61 71 72 75 77 81 77 79 83 87
43 45 47 47 44 43 45 41 41 43 45 49 51 51 48 49 49 48 50 51 52 55 57 56 55 60 60 62 63 59 62 64 63 74 75 77 80 86 83 85 83 87 89
47 49 51 50 50 51 49 48 46 47 50 53 54 54 53 55 52 52 56 58 61 61 62 66 56 61 63 62 65 73 66 67 65 78 79 80 79 84 78 82 85 87 90
Wind_Direction
201 193 197 206 216 223 223 226 224 228 228 234 241 244 252 253 258 256 259 257 252 255 247 246 231 229 225 226 232 239 237 238 253 271 274 277 283 290 296 301 299 304 308
210 207 211 215 228 228 230 228 223 232 227 236 244 247 251 256 261 258 264 263 260 256 255 236 236 231 231 229 236 236 240 244 252 268 270 277 290 298 298 298 300 301 301
211 237 228 241 237 229 234 230 224 230 229 238 242 244 255 262 255 260 268 266 263 254 252 238 232 235 234 231 230 237 246 242 253 265 280 287 293 295 295 297 297 300 300
225 225 243 238 238 233 236 230 227 225 225 236 239 246 248 254 250 266 266 267 262 258 249 242 232 230 232 234 230 236 244 253 261 273 279 288 291 294 300 302 301 301 299
238 238 232 233 240 238 236 237 227 224 230 238 240 249 248 254 263 264 262 264 262 255 255 247 240 231 231 236 242 244 250 264 273 279 287 291 295 297 301 305 304 305 303
236 230 231 238 242 246 235 231 228 229 232 239 239 249 254 251 260 269 269 265 260 257 255 245 248 226 234 242 248 250 246 268 274 279 284 291 295 299 298 302 306 301 298
240 243 236 239 248 243 230 230 240 236 238 238 240 243 251 256 261 262 267 267 265 260 260 255 240 233 238 240 243 255 257 270 278 281 289 290 292 294 300 303 302 301 297
235 231 233 241 249 250 247 244 247 255 252 243 241 245 246 259 265 267 263 256 258 263 264 263 250 238 246 246 256 264 269 270 277 283 286 286 287 295 299 295 299 300 298
228 235 239 236 247 247 252 255 247 255 258 247 242 245 253 255 261 267 261 258 254 246 243 251 252 249 248 253 258 266 263 273 282 282 285 292 290 288 293 298 298 299 296
228 222 220 221 240 248 239 239 241 243 244 241 243 243 251 257 262 257 245 250 261 244 245 250 244 245 253 258 261 261 265 272 279 284 287 287 288 292 291 298 308 301 295
225 232 199 202 211 206 211 217 205 214 229 247 249 251 253 252 249 245 246 250 249 255 258 258 262 259 262 264 259 262 268 274 277 279 283 286 286 289 289 293 303 295 287
197 198 215 215 212 205 208 214 211 218 227 247 248 245 233 229 230 239 242 251 259 266 270 273 271 268 267 268 270 273 277 279 283 285 284 281 286 290 289 291 296 287 283
210 214 212 224 224 228 227 225 226 222 227 231 236 244 240 239 243 250 261 259 261 263 265 266 269 271 277 279 280 283 283 286 286 289 289 286 284 287 289 292 284 291 288
172 160 213 222 216 216 223 224 222 225 227 227 236 236 241 241 260 268 267 266 269 266 271 271 269 269 272 275 282 289 293 293 294 297 299 299 292 293 292 293 279 287 289
216 227 233 234 232 227 225 220 216 214 223 231 245 249 251 251 253 256 262 266 270 271 273 274 278 279 275 274 281 285 290 293 296 294 296 298 299 285 288 286 284 286 291
234 239 244 247 248 247 248 244 240 240 246 251 255 258 261 261 263 264 266 267 270 273 278 276 274 275 274 274 278 282 289 288 288 283 291 291 288 286 288 289 287 290 294
265 266 267 267 263 260 258 256 257 253 258 259 257 255 261 265 264 265 268 274 275 276 278 281 279 277 280 280 281 283 286 286 289 287 289 293 288 292 290 288 290 294 299
258 260 263 271 271 267 263 264 265 266 266 265 264 264 265 267 268 271 272 272 273 273 276 279 283 279 279 282 283 284 285 287 290 291 289 292 283 289 291 288 288 292 297
250 254 264 272 272 273 273 271 272 270 268 266 265 267 270 270 273 274 275 275 277 276 278 280 286 282 283 283 282 283 285 284 285 286 289 287 290 286 290 294 288 288 295
266 264 262 265 268 271 274 274 272 267 267 270 274 278 278 279 278 277 276 277 277 277 277 278 283 283 282 285 283 284 281 284 284 286 290 291 288 287 288 295 292 287 300
268 268 270 271 272 274 270 275 271 267 267 270 272 278 279 280 279 279 278 279 277 281 283 282 283 282 279 282 282 280 278 285 290 289 287 293 294 285 291 295 295 287 296
267 267 267 268 270 278 275 269 270 271 273 275 277 276 278 280 280 279 281 283 282 281 283 283 284 283 281 283 286 284 286 286 287 290 290 284 291 285 293 292 292 290 292
264 267 267 267 267 270 273 275 275 274 276 279 279 280 282 282 281 279 282 284 285 286 284 285 285 287 287 288 287 287 289 290 290 292 289 289 287 289 292 289 288 291 292
263 265 266 266 267 267 269 269 273 271 276 278 277 281 283 283 283 286 286 285 285 285 285 284 285 284 285 286 286 287 288 290 282 286 292 283 284 290 290 289 288 288 292
265 265 266 267 267 268 270 273 274 269 272 276 277 279 281 283 285 287 286 283 284 287 288 286 286 289 286 299 286 292 289 286 278 286 289 290 283 285 289 285 281 287 293
262 262 264 267 270 270 271 271 268 267 269 273 276 276 276 277 280 283 285 287 287 289 293 288 277 295 279 292 275 292 292 281 274 289 290 290 290 282 285 286 289 291 293